| time (UTC) | temp C | wind direction | speed KPH | gust KPH | rain 1hr cm | rain 24hr cm | rain mn cm | humidity % | barometer mb |
| 20260906181535 | 35 | 169 | 1.6 | 4.8 | 0.00 | 0.00 | 0.00 | 49 | 1012.6 |
| 20260906180025 | 35 | 130 | 1.6 | 6.4 | 0.00 | 0.00 | 0.00 | 51 | 1012.9 |
| 20260906174524 | 35 | 182 | 6.4 | 9.7 | 0.00 | 0.00 | 0.00 | 53 | 1013.2 |
| 20260906173019 | 34 | 41 | 3.2 | 11.3 | 0.00 | 0.00 | 0.00 | 53 | 1013.4 |
| 20260906171518 | 33 | 102 | 3.2 | 8.0 | 0.00 | 0.00 | 0.00 | 57 | 1013.7 |
| 20260906170017 | 33 | 117 | 1.6 | 8.0 | 0.00 | 0.00 | 0.00 | 57 | 1013.9 |
| 20260906164513 | 33 | 148 | 6.4 | 9.7 | 0.00 | 0.00 | 0.00 | 57 | 1013.9 |
| 20260906163015 | 32 | 164 | 0.0 | 11.3 | 0.00 | 0.00 | 0.00 | 60 | 1014.0 |
| 20260906161510 | 32 | 168 | 3.2 | 6.4 | 0.00 | 0.00 | 0.00 | 59 | 1014.1 |
| 20260906160020 | 32 | 166 | 0.0 | 4.8 | 0.00 | 0.00 | 0.00 | 62 | 1014.0 |
| 20260906154503 | 31 | 145 | 1.6 | 8.0 | 0.00 | 0.00 | 0.00 | 65 | 1013.9 |
| 20260906153001 | 31 | 141 | 0.0 | 9.7 | 0.00 | 0.00 | 0.00 | 64 | 1013.6 |
| 20260906151608 | 31 | 122 | 4.8 | 12.9 | 0.00 | 0.00 | 0.00 | 64 | 1013.5 |
| 20260906150057 | 30 | 80 | 4.8 | 11.3 | 0.00 | 0.00 | 0.00 | 68 | 1013.3 |
| 20260906144556 | 30 | 118 | 6.4 | 11.3 | 0.00 | 0.00 | 0.00 | 71 | 1013.5 |
| 20260906143108 | 29 | 143 | 4.8 | 11.3 | 0.00 | 0.00 | 0.00 | 72 | 1013.6 |
| 20260906141554 | 29 | 111 | 4.8 | 9.7 | 0.00 | 0.00 | 0.00 | 72 | 1013.6 |
| 20260906140048 | 28 | 146 | 3.2 | 8.0 | 0.00 | 0.00 | 0.00 | 73 | 1013.6 |
| 20260906134549 | 27 | 97 | 1.6 | 6.4 | 0.00 | 0.00 | 0.00 | 79 | 1013.5 |
| 20260906133046 | 27 | 47 | 1.6 | 4.8 | 0.00 | 0.00 | 0.00 | 82 | 1013.5 |
| 20260906131548 | 26 | 38 | 0.0 | 0.0 | 0.00 | 0.00 | 0.00 | 85 | 1013.4 |
| 20260906130044 | 25 | 53 | 0.0 | 4.8 | 0.00 | 0.00 | 0.00 | 87 | 1013.3 |
| 20260906124536 | 25 | 78 | 0.0 | 1.6 | 0.00 | 0.00 | 0.00 | 89 | 1013.1 |
| 20260906123037 | 23 | 64 | 0.0 | 0.0 | 0.00 | 0.00 | 0.00 | 89 | 1013.0 |
| 20260906121539 | 23 | 77 | 0.0 | 0.0 | 0.00 | 0.00 | 0.00 | 88 | 1012.8 |
| 20260906120033 | 23 | 75 | 0.0 | 0.0 | 0.00 | 0.00 | 0.00 | 87 | 1012.6 |
| 20260906114534 | 23 | 77 | 0.0 | 0.0 | 0.00 | 0.00 | 0.00 | 87 | 1012.6 |
| 20260906113040 | 23 | 73 | 0.0 | 0.0 | 0.00 | 0.00 | 0.00 | 86 | 1012.5 |
| 20260906111533 | 23 | 77 | 0.0 | 6.4 | 0.00 | 0.00 | 0.00 | 86 | 1012.4 |
| 20260906110025 | 24 | 146 | 0.0 | 0.0 | 0.00 | 0.00 | 0.00 | 84 | 1012.1 |
| 20260906104524 | 23 | 146 | 0.0 | 0.0 | 0.00 | 0.00 | 0.00 | 84 | 1012.3 |
| 20260906103023 | 23 | 150 | 0.0 | 0.0 | 0.00 | 0.00 | 0.00 | 84 | 1012.2 |
| 20260906101522 | 24 | 148 | 0.0 | 0.0 | 0.00 | 0.00 | 0.00 | 82 | 1012.3 |
| 20260906100021 | 25 | 148 | 0.0 | 0.0 | 0.00 | 0.00 | 0.00 | 81 | 1012.3 |
| 20260906094530 | 24 | 146 | 0.0 | 1.6 | 0.00 | 0.00 | 0.00 | 82 | 1012.2 |
| 20260906093019 | 24 | 132 | 0.0 | 0.0 | 0.00 | 0.00 | 0.00 | 83 | 1012.1 |
| 20260906091525 | 24 | 127 | 0.0 | 0.0 | 0.00 | 0.00 | 0.00 | 83 | 1012.0 |
| 20260906090016 | 24 | 127 | 0.0 | 0.0 | 0.00 | 0.00 | 0.00 | 82 | 1011.8 |
| 20260906084521 | 25 | 127 | 0.0 | 0.0 | 0.00 | 0.00 | 0.00 | 81 | 1011.7 |
| 20260906083019 | 25 | 127 | 0.0 | 0.0 | 0.00 | 0.00 | 0.00 | 80 | 1011.7 |
| 20260906081528 | 25 | 127 | 0.0 | 4.8 | 0.00 | 0.00 | 0.00 | 79 | 1011.6 |
| 20260906080009 | 25 | 129 | 1.6 | 6.4 | 0.00 | 0.00 | 0.00 | 79 | 1011.5 |
| 20260906074506 | 25 | 112 | 1.6 | 3.2 | 0.00 | 0.00 | 0.00 | 79 | 1011.5 |
| 20260906073007 | 25 | 96 | 1.6 | 6.4 | 0.00 | 0.00 | 0.00 | 79 | 1011.6 |
| 20260906071503 | 26 | 89 | 1.6 | 4.8 | 0.00 | 0.00 | 0.00 | 78 | 1011.5 |
| 20260906064557 | 26 | 79 | 0.0 | 4.8 | 0.00 | 0.00 | 0.00 | 76 | 1011.8 |
| 20260906063055 | 27 | 113 | 1.6 | 4.8 | 0.00 | 0.00 | 0.00 | 75 | 1011.9 |
| 20260906061553 | 27 | 127 | 1.6 | 6.4 | 0.00 | 0.00 | 0.00 | 75 | 1012.0 |
| 20260906060050 | 27 | 115 | 1.6 | 4.8 | 0.00 | 0.00 | 0.00 | 75 | 1011.9 |
| 20260906054551 | 27 | 127 | 1.6 | 4.8 | 0.00 | 0.00 | 0.00 | 74 | 1012.0 |
| 20260906053043 | 27 | 118 | 1.6 | 4.8 | 0.00 | 0.00 | 0.00 | 73 | 1012.1 |
| 20260906051548 | 27 | 131 | 1.6 | 4.8 | 0.00 | 0.00 | 0.00 | 72 | 1012.1 |
| 20260906050058 | 27 | 116 | 1.6 | 6.4 | 0.00 | 0.00 | 0.00 | 71 | 1012.1 |
| 20260906044535 | 28 | 82 | 3.2 | 8.0 | 0.00 | 0.00 | 0.00 | 70 | 1012.1 |
| 20260906043034 | 28 | 89 | 3.2 | 8.0 | 0.00 | 0.00 | 0.00 | 69 | 1012.1 |
| 20260906041534 | 28 | 86 | 3.2 | 8.0 | 0.00 | 0.00 | 0.00 | 68 | 1012.0 |
| 20260906040037 | 28 | 91 | 4.8 | 9.7 | 0.00 | 0.00 | 0.00 | 67 | 1011.8 |
| 20260906034539 | 28 | 88 | 4.8 | 8.0 | 0.00 | 0.00 | 0.00 | 66 | 1011.7 |
| 20260906033031 | 28 | 98 | 3.2 | 6.4 | 0.00 | 0.00 | 0.00 | 65 | 1011.5 |
| 20260906031538 | 29 | 102 | 1.6 | 6.4 | 0.00 | 0.00 | 0.00 | 64 | 1011.4 |
| 20260906030032 | 29 | 108 | 1.6 | 3.2 | 0.00 | 0.00 | 0.00 | 64 | 1011.3 |
| 20260906024529 | 30 | 118 | 0.0 | 3.2 | 0.00 | 0.00 | 0.00 | 62 | 1011.1 |
| 20260906023030 | 30 | 120 | 0.0 | 3.2 | 0.00 | 0.00 | 0.00 | 61 | 1010.8 |
| 20260906021529 | 30 | 120 | 0.0 | 3.2 | 0.00 | 0.00 | 0.00 | 61 | 1010.5 |
| 20260906020030 | 31 | 134 | 1.6 | 4.8 | 0.00 | 0.00 | 0.00 | 58 | 1010.5 |
| 20260906014532 | 32 | 147 | 0.0 | 0.0 | 0.00 | 0.00 | 0.00 | 51 | 1010.2 |
| 20260906013026 | 32 | 146 | 0.0 | 0.0 | 0.00 | 0.00 | 0.00 | 51 | 1010.1 |
| 20260906011526 | 32 | 177 | 0.0 | 1.6 | 0.00 | 0.00 | 0.00 | 52 | 1010.0 |
| 20260906010026 | 32 | 199 | 0.0 | 1.6 | 0.00 | 0.00 | 0.00 | 52 | 1009.8 |
| 20260906004525 | 33 | 188 | 0.0 | 1.6 | 0.00 | 0.00 | 0.00 | 51 | 1009.7 |
| 20260906003024 | 33 | 184 | 0.0 | 3.2 | 0.00 | 0.00 | 0.00 | 50 | 1009.8 |
| 20260906001524 | 33 | 186 | 0.0 | 3.2 | 0.00 | 0.00 | 0.00 | 49 | 1009.8 |
| 20260906000028 | 34 | 181 | 0.0 | 1.6 | 0.00 | 0.00 | 0.00 | 48 | 1009.8 |
| 20260905234522 | 35 | 181 | 0.0 | 3.2 | 0.00 | 0.00 | 0.00 | 47 | 1009.8 |
| 20260905233027 | 35 | 180 | 0.0 | 8.0 | 0.00 | 0.00 | 0.00 | 46 | 1009.9 |
| 20260905231521 | 36 | 187 | 3.2 | 12.9 | 0.00 | 0.00 | 0.00 | 45 | 1009.7 |
| 20260905230021 | 36 | 218 | 6.4 | 14.5 | 0.00 | 0.00 | 0.00 | 44 | 1009.7 |
| 20260905224521 | 36 | 199 | 3.2 | 11.3 | 0.00 | 0.00 | 0.00 | 44 | 1009.7 |
| 20260905223020 | 36 | 144 | 8.0 | 12.9 | 0.00 | 0.00 | 0.00 | 43 | 1009.9 |
| 20260905221517 | 37 | 192 | 4.8 | 12.9 | 0.00 | 0.00 | 0.00 | 44 | 1010.1 |
| 20260905220117 | 37 | 191 | 6.4 | 14.5 | 0.00 | 0.00 | 0.00 | 43 | 1010.1 |
| 20260905214515 | 37 | 205 | 4.8 | 11.3 | 0.00 | 0.00 | 0.00 | 44 | 1010.0 |
| 20260905213014 | 37 | 217 | 4.8 | 17.7 | 0.00 | 0.00 | 0.00 | 41 | 1010.1 |
| 20260905211512 | 36 | 205 | 1.6 | 12.9 | 0.00 | 0.00 | 0.00 | 42 | 1010.4 |
| 20260905210010 | 36 | 151 | 6.4 | 12.9 | 0.00 | 0.00 | 0.00 | 43 | 1010.7 |
| 20260905204511 | 37 | 192 | 6.4 | 14.5 | 0.00 | 0.00 | 0.00 | 43 | 1010.7 |
| 20260905203007 | 36 | 259 | 6.4 | 22.5 | 0.00 | 0.00 | 0.00 | 42 | 1010.9 |
| 20260905201505 | 37 | 181 | 9.7 | 16.1 | 0.00 | 0.00 | 0.00 | 43 | 1011.1 |
| 20260905200004 | 37 | 210 | 3.2 | 14.5 | 0.00 | 0.00 | 0.00 | 45 | 1011.2 |
| 20260905194507 | 36 | 171 | 9.7 | 19.3 | 0.00 | 0.00 | 0.00 | 45 | 1011.4 |
| 20260905193101 | 36 | 193 | 9.7 | 19.3 | 0.00 | 0.00 | 0.00 | 45 | 1011.6 |
| 20260905191612 | 36 | 254 | 1.6 | 11.3 | 0.00 | 0.00 | 0.00 | 47 | 1011.7 |
| 20260905190056 | 36 | 176 | 4.8 | 14.5 | 0.00 | 0.00 | 0.00 | 47 | 1011.8 |
| 20260905184607 | 36 | 168 | 4.8 | 22.5 | 0.00 | 0.00 | 0.00 | 47 | 1012.0 |
| 20260905183053 | 36 | 228 | 8.0 | 16.1 | 0.00 | 0.00 | 0.00 | 48 | 1012.3 |